Printer-friendly version

IAU Minor Planet Center

Minor Planet Center

MPEC 2006-H07 : 2006 HB

The following Minor Planet Electronic Circular may be linked-to from your own Web pages, but must not otherwise be redistributed electronically.


Read MPEC 2006-H06 Read MPEC 2006-H08


M.P.E.C. 2006-H07                                Issued 2006 Apr. 19, 11:05 UT

     The Minor Planet Electronic Circulars contain information on unusual
         minor planets and routine data on comets.  They are published
   on behalf of Commission 20 of the International Astronomical Union by the
          Minor Planet Center, Smithsonian Astrophysical Observatory,
                          Cambridge, MA 02138, U.S.A.

                  Supported in part by the Brinson Foundation
                  Supported in part by the TABASGO Foundation
             Prepared using the Tamkin Foundation Computer Network

                              MPC@CFA.HARVARD.EDU
          URL http://cfa-www.harvard.edu/iau/mpc.html  ISSN 1523-6714

                                    2006 HB

Observations:
     K06H00B* C2006 04 18.17619 13 12 42.08 -02 38 37.6          20.8 V EH007691
     K06H00B  C2006 04 18.18911 13 12 41.09 -02 38 29.9          20.6 V EH007691
     K06H00B  C2006 04 18.20202 13 12 40.13 -02 38 21.3          20.6 V EH007691
     K06H00B  C2006 04 18.39325 13 12 25.65 -02 36 16.9          20.7 V EH007291
     K06H00B  C2006 04 18.39709 13 12 25.35 -02 36 14.6          21.1 V EH007291
     K06H00B  C2006 04 18.40091 13 12 25.08 -02 36 12.0          20.8 V EH007291
     K06H00B  C2006 04 19.22108 13 11 26.19 -02 27 22.3          20.4 R EH007734
     K06H00B  C2006 04 19.22493 13 11 26.05 -02 27 18.4          20.2 V EH007G96
     K06H00B  C2006 04 19.22696 13 11 25.72 -02 27 18.7          20.2 R EH007734
     K06H00B  C2006 04 19.23283 13 11 25.28 -02 27 15.6          20.5 R EH007734
     K06H00B  C2006 04 19.23609 13 11 25.18 -02 27 11.6          20.2 V EH007G96
     K06H00B  C2006 04 19.24729 13 11 24.32 -02 27 04.2          20.6 V EH007G96
     K06H00B  C2006 04 19.25861 13 11 23.49 -02 26 57.2          20.3 V EH007G96
     K06H00B  C2006 04 19.30501 13 11 20.06 -02 26 25.8          20.0 V EH007291
     K06H00B  C2006 04 19.30881 13 11 19.68 -02 26 24.8          20.8 V EH007291
     K06H00B  C2006 04 19.31248 13 11 19.40 -02 26 22.4          20.8 V EH007291

Observer details:
291 LPL/Spacewatch II.  Observer T. H. Bressi.  1.8-m f/2.7 reflector + CCD.
691 Steward Observatory, Kitt Peak.  Observer T. H. Bressi.  0.9-m f/3
    reflector + CCD.
734 Farpoint Observatory.  Observer D. Tibbets.  0.7-m reflector + CCD.
G96 Mt. Lemmon Survey.  Observer R. A. Kowalski.  Measurers E. C. Beshore,
    E. J. Christensen, G. J. Garradd, A. R. Gibbs, A. D. Grauer, R. E. Hill,
    R. A. Kowalski, S. M. Larson, R. H. McNaught.  1.5-m reflector + CCD.

Orbital elements:
2006 HB                                                  Earth MOID = 0.2784 AU
Epoch 2006 Mar. 6.0 TT = JDT 2453800.5                  MPC
M 281.18075              (2000.0)            P               Q
n   0.35835472     Peri.  134.73201     +0.59632564     +0.80267457
a   1.9630316      Node   171.85561     -0.75577998     +0.56577976
e   0.3442475      Incl.    4.23128     -0.27054084     +0.18869761
P   2.75           H   19.0           G   0.15           U   9
Residuals in seconds of arc
060418 691  0.1+  0.4+    060419 734  0.1+  0.1-    060419 G96  0.1+  0.1-
060418 691  0.2-  0.3-    060419 G96  0.2+  0.4+    060419 291  1.3+  1.3+
060418 691  0.0   0.1-    060419 734  0.2-  0.3-    060419 291  0.1-  0.1-
060418 291  0.1+  0.1+    060419 734  0.2-  0.9-    060419 291  0.2-  0.1-
060418 291  0.1-  0.1-    060419 G96  0.2-  0.1+
060418 291  0.1+  0.0     060419 G96  0.3-  0.2+

Ephemeris:
2006 HB                  a,e,i = 1.96, 0.34, 4                   q = 1.2873
Date    TT    R. A. (2000) Decl.     Delta      r     Elong.  Phase     V
2006 04 15    13 16.52   -03 13.2    0.895    1.894   172.6     3.9    20.5
2006 04 25    13 04.59   -01 26.9    0.872    1.850   160.2    10.6    20.7
2006 05 05    12 54.08   +00 03.0    0.870    1.805   147.7    17.4    20.9
2006 05 15    12 46.60   +01 05.4    0.887    1.760   136.0    23.5    21.1
2006 05 25    12 43.03   +01 35.3    0.916    1.715   125.5    28.7    21.2
2006 06 04    12 43.69   +01 32.4    0.954    1.671   116.1    33.0    21.4
2006 06 14    12 48.44   +00 59.5    0.995    1.626   107.9    36.5    21.5
2006 06 24    12 56.91   +00 00.6    1.038    1.582   100.8    39.1    21.6
2006 07 04    13 08.75   -01 20.4    1.079    1.540    94.5    41.2    21.7
2006 07 14    13 23.60   -02 59.6    1.117    1.498    89.1    42.7    21.8
2006 07 24    13 41.18   -04 53.3    1.152    1.459    84.4    43.8    21.8
2006 08 03    14 01.34   -06 58.0    1.184    1.423    80.3    44.7    21.8
2006 08 13    14 23.95   -09 10.0    1.212    1.390    76.7    45.2    21.9
2006 08 23    14 48.94   -11 24.9    1.237    1.360    73.7    45.5    21.9
2006 09 02    15 16.31   -13 38.4    1.260    1.335    71.1    45.7    21.9
2006 09 12    15 46.00   -15 44.8    1.283    1.314    68.9    45.6    21.9
2006 09 22    16 17.94   -17 38.4    1.306    1.300    67.0    45.3    21.9
2006 10 02    16 51.97   -19 13.2    1.331    1.290    65.4    44.9    21.9
2006 10 12    17 27.76   -20 23.1    1.360    1.287    64.0    44.2    21.9
2006 10 22    18 04.87   -21 03.3    1.394    1.291    62.8    43.3    21.9
2006 11 01    18 42.75   -21 10.3    1.434    1.300    61.6    42.2    22.0

Timothy B. Spahr             (C) Copyright 2006 MPC           M.P.E.C. 2006-H07

Read MPEC 2006-H06 Read MPEC 2006-H08


Our Web policy. Index to the CBAT/MPC/ICQ pages.


Valid HTML 4.01!